K5EBQ Weather Reports


Display with metric or nautical units.
time (UTC)temp
F
wind
direction
speed
MPH
gust
MPH
rain 1hr
in
rain 24hr
in
rain mn
in
humidity
%
barometer
mb
20260506150026 80 204 0.0 0.0 0.00 0.00 0.00 87 1007.4
20260506144520 80 125 0.0 0.0 0.00 0.00 0.00 88 1007.2
20260506143018 80 185 0.0 0.0 0.00 0.00 0.00 89 1006.9
20260506141515 79 115 0.0 0.0 0.00 0.00 0.00 90 1007.0
20260506140013 78 130 0.0 0.0 0.00 0.00 0.00 92 1007.2
20260506134509 78 159 0.0 0.0 0.00 0.00 0.00 93 1007.2
20260506133009 77 161 0.0 0.0 0.00 0.00 0.00 94 1007.2
20260506131513 77 161 0.0 0.0 0.00 0.00 0.00 94 1007.5
20260506130007 77 161 0.0 0.0 0.00 0.00 0.00 94 1007.3
20260506124506 76 130 0.0 0.0 0.00 0.00 0.00 94 1007.3
20260506123005 76 90 0.0 0.0 0.00 0.00 0.00 94 1007.2
20260506121504 76 130 0.0 0.0 0.00 0.00 0.00 94 1007.1
20260506120006 76 130 0.0 0.0 0.00 0.00 0.00 95 1006.9
20260506114504 76 130 0.0 0.0 0.00 0.00 0.00 94 1006.7
20260506113003 76 130 0.0 0.0 0.00 0.00 0.00 94 1006.6
20260506111502 76 151 0.0 0.0 0.00 0.00 0.00 94 1006.3
20260506110002 76 151 0.0 0.0 0.00 0.00 0.00 94 1006.1
20260506104603 76 151 0.0 0.0 0.00 0.00 0.00 93 1006.1
20260506104500 76 150 0.0 0.0 0.00 0.00 0.00 93 1006.1
20260506103100 76 215 0.0 0.0 0.00 0.00 0.00 93 1006.2
20260506101605 76 215 0.0 0.0 0.00 0.00 0.00 93 1006.1
20260506100058 76 148 0.0 0.0 0.00 0.00 0.00 92 1005.8
20260506094622 76 182 0.0 0.0 0.00 0.00 0.00 92 1005.8
20260506093057 76 155 0.0 0.0 0.00 0.00 0.00 92 1005.7
20260506091555 76 163 0.0 0.0 0.00 0.00 0.00 91 1005.7
20260506090053 77 172 0.0 0.0 0.00 0.00 0.00 91 1005.9
20260506084551 77 150 0.0 0.0 0.00 0.00 0.00 91 1005.9
20260506083049 77 159 0.0 0.0 0.00 0.00 0.00 91 1006.0
20260506081548 77 171 0.0 0.0 0.00 0.00 0.00 91 1006.1
20260506073046 77 167 0.0 0.0 0.00 0.00 0.00 91 1006.5
20260506071545 77 166 0.0 0.0 0.00 0.00 0.00 91 1006.7
20260506061539 77 124 0.0 0.0 0.00 0.00 0.00 90 1007.0
20260506044541 78 164 0.0 0.0 0.00 0.00 0.00 89 1007.0
20260506043031 78 165 0.0 0.0 0.00 0.00 0.00 88 1007.0
20260506041531 78 180 0.0 0.0 0.00 0.00 0.00 87 1006.8
20260506040050 79 181 0.0 0.0 0.00 0.00 0.00 86 1006.6
20260506034528 79 150 7.0 37.0 0.00 0.00 0.00 86 1006.8
20260506033029 79 190 3.0 34.0 0.00 0.00 0.00 86 1006.5
20260506031541 79 161 3.0 6.0 0.00 0.00 0.00 85 1006.1
20260506030027 79 86 5.0 20.0 0.00 0.00 0.00 85 1006.2
20260506024529 79 177 5.0 24.0 0.00 0.00 0.00 85 1006.0
20260506023027 79 192 3.0 11.0 0.00 0.00 0.00 85 1005.7
20260506021525 79 166 5.0 14.0 0.00 0.00 0.00 84 1005.6
20260506020025 80 188 5.0 13.0 0.00 0.00 0.00 84 1005.4
20260506014524 80 190 1.0 9.0 0.00 0.00 0.00 83 1005.2
20260506013024 80 219 4.0 10.0 0.00 0.00 0.00 82 1005.0
20260506011527 80 171 2.0 10.0 0.00 0.00 0.00 82 1004.6
20260506010022 81 171 2.0 16.0 0.00 0.00 0.00 81 1004.5
20260506004526 81 223 3.0 34.0 0.00 0.00 0.00 80 1004.4
20260506003021 81 180 4.0 8.0 0.00 0.00 0.00 80 1004.4
20260506001521 81 219 4.0 21.0 0.00 0.00 0.00 79 1004.2
20260506000022 82 181 2.0 9.0 0.00 0.00 0.00 79 1004.4
20260505234520 82 203 6.0 36.0 0.00 0.00 0.00 78 1004.2
20260505233019 82 155 8.0 45.0 0.00 0.00 0.00 77 1004.2
20260505231527 82 238 14.0 48.0 0.00 0.00 0.00 77 1004.2
20260505230026 83 226 14.0 47.0 0.00 0.00 0.00 77 1004.3
20260505224518 83 226 21.0 60.0 0.00 0.00 0.00 76 1004.3
20260505223016 83 196 12.0 78.0 0.00 0.00 0.00 76 1004.2
20260505221514 83 213 4.0 40.0 0.00 0.00 0.00 77 1004.4
20260505220013 84 203 3.0 10.0 0.00 0.00 0.00 76 1004.5
20260505214511 84 202 5.0 15.0 0.00 0.00 0.00 75 1004.7
20260505213010 84 207 2.0 12.0 0.00 0.00 0.00 77 1004.8
20260505211509 84 148 5.0 15.0 0.00 0.00 0.00 76 1004.9
20260505210008 84 219 4.0 10.0 0.00 0.00 0.00 77 1005.1
20260505204506 84 229 5.0 11.0 0.00 0.00 0.00 76 1005.2
20260505203005 84 223 5.0 17.0 0.00 0.00 0.00 76 1005.4
20260505201504 84 190 4.0 8.0 0.00 0.00 0.00 77 1005.8
20260505200001 84 186 2.0 11.0 0.00 0.00 0.00 78 1005.9
20260505194624 84 222 3.0 11.0 0.00 0.00 0.00 77 1006.1
20260505193100 84 230 4.0 10.0 0.00 0.00 0.00 76 1006.2
20260505191559 83 231 3.0 21.0 0.00 0.00 0.00 78 1006.3
20260505190057 82 204 3.0 9.0 0.00 0.00 0.00 80 1006.3
20260505184556 82 180 3.0 11.0 0.00 0.00 0.00 79 1006.6
20260505183055 83 95 6.0 13.0 0.00 0.00 0.00 77 1006.6
20260505181557 82 223 4.0 11.0 0.00 0.00 0.00 80 1006.7
20260505180049 80 208 1.0 9.0 0.00 0.00 0.00 83 1006.8
20260505174555 80 212 4.0 8.0 0.00 0.00 0.00 82 1007.1
20260505173048 80 167 2.0 16.0 0.00 0.00 0.00 83 1007.2
20260505171552 80 208 3.0 12.0 0.00 0.00 0.00 82 1007.1
20260505170047 80 231 3.0 8.0 0.00 0.00 0.00 82 1007.2
20260505164556 79 198 2.0 10.0 0.00 0.00 0.00 83 1007.3
20260505163050 79 234 4.0 10.0 0.00 0.00 0.00 85 1007.3
20260505161541 78 198 7.0 37.0 0.00 0.00 0.00 84 1007.2
20260505153036 77 119 2.0 9.0 0.00 0.00 0.00 87 1006.9
20260505151534 77 210 2.0 7.0 0.00 0.00 0.00 87 1006.9